Location: Camaret
(48.2753°N, 4.5961°W)
Time: 23:43:02
(UTC+00:00)

CZ-4 R/B - Pass Details

Date: 29 October 2020
Orbit: 532 x 598 km, 97.7° (Epoch: 26 November)

Event Time Altitude Azimuth Distance (km) Brightness Sun altitude
Rises 18:59:22 0° 174° (S) 2,695 4.8 -19.7°
Reaches altitude 10° 19:01:30 10° 178° (S) 1,799 3.9 -20.1°
Maximum altitude 19:05:20 61° 259° (WSW) 616 1.7 -20.7°
Drops below altitude 10° 19:09:10 10° 340° (NNW) 1,796 4.2 -21.4°
Sets 19:11:19 0° 344° (NNW) 2,690 5.1 -21.7°
